This site uses a module created by best online poker sites.

BSB police report ending April 13, 2018

"04/12/2018","00:19","218CR0008940","T/S","T/S","20 S MONTANA DUBLIN BAR","",""
"04/12/2018","00:25","218CR0008941","ACCIDENT","DUI DRUGS OR ALCOHOL","WYNNE AND CLEVELAND","ARREST(s) MADE",""
"04/12/2018","00:57","218CR0008942","CIVIL STANDBY","CIVIL STANDBY","102 SILVERBOW HOMES","",""
"04/12/2018","01:08","218CR0008943","ALARM - BURGLARY","ALARM - BURGLARY","************","",""
"04/12/2018","02:18","218CR0008944","T/S","T/S","FARRELL AND ADAMS","",""
"04/12/2018","03:10","218CR0008945","ATL","PROTECTIVE CUSTODY","400 S CLARK ST","",""
"04/12/2018","04:41","218CR0008946","SUSPICIOUS ACTIVITY","SUSPICIOUS ACTIVITY","3934 WYNNE AVE","",""
"04/12/2018","05:18","218CR0008948","BUSINESS CHECK","BUSINESS CHECK","531 S MONTANA","",""
"04/12/2018","05:18","218CR0008947","SUSPICIOUS ACTIVITY","SUSPICIOUS ACTIVITY","3878 PAXSON AVE","",""
"04/12/2018","06:22","218CR0008949","DISTURBANCE","POSSESS DRUG PARAPHERNALIA","400 S CLARK ST","ARREST(s) MADE",""
"04/12/2018","06:51","218CR0008950","MEDICAL - EMERGENCY","MEDICAL - EMERGENCY","2201 LOCUST","",""
"04/12/2018","06:58","218CR0008951","THEFT","THEFT FROM MOTOR VEHICLE","2100 CORNELL","",""
"04/12/2018","07:58","218CR0008952","CIVIL PAPER SERVICE","CIVIL PAPER SERVICE","3434 CARTER ST","",""
"04/12/2018","08:10","218CR0008953","T/S","T/S","1300 BLK KAW","",""
"04/12/2018","08:24","218CR0008954","CIVIL PAPER SERVICE","CIVIL PAPER SERVICE","1835 OREGON","",""
"04/12/2018","08:40","218CR0008955","BURGLARY","CRIMINAL MISCHIEF","701 CENTENNIAL AVE","",""
"04/12/2018","09:09","218CR0008956","MEDICAL - EMERGENCY","MEDICAL - EMERGENCY","2711 HARRISON TOWN PUMP","",""
"04/12/2018","09:14","218CR0008957","CIVIL PAPER SERVICE","CIVIL PAPER SERVICE","1511 GAYLORD","",""
"04/12/2018","09:20","218CR0008958","CIVIL PAPER SERVICE","CIVIL PAPER SERVICE","2225 FAIRWAY","",""
"04/12/2018","09:31","218CR0008959","LED BUSINESS","LED BUSINESS","155 W GRANITE","",""
"04/12/2018","09:35","218CR0008960","ALL OTHER","ALL OTHER","125 BASIN CREEK RD","",""
"04/12/2018","09:36","218CR0008961","LED BUSINESS","LED BUSINESS","BSB GUN RANGE","",""
"04/12/2018","09:47","218CR0008963","ABANDONED VEHICLE- PRIVATE PRO","ABANDONED VEHICLE- PRIVATE PRO","1210 ELM ST","",""
"04/12/2018","09:48","218CR0008962","DETENTION BUSINESS","DETENTION BUSINESS","************","",""
"04/12/2018","09:55","218CR0008964","SUICIDE ATTEMPT/THREAT","SUICIDE ATTEMPT/THREAT","************","",""
"04/12/2018","10:06","218CR0008965","SUSPICIOUS ACTIVITY","SUSPICIOUS ACTIVITY","3878 PAXSON AVE","",""
"04/12/2018","10:26","218CR0008966","FIRE- GAS ODOR","FIRE- GAS ODOR","608 W GALENA ST APT B","",""
"04/12/2018","10:29","218CR0008967","ASSIST OTHER AGENCY","ASSIST OTHER AGENCY","I15 MM 157 NB","",""
"04/12/2018","11:14","218CR0008969","ALARM - FIRE","ALARM - FIRE","1300 W PARK ST","",""
"04/12/2018","11:16","218CR0008970","UNWANTED PERSON","UNWANTED PERSON","************","",""
"04/12/2018","11:49","218CR0008971","LOST OR STOLEN PROPERTY","THEFT FROM MOTOR VEHICLE","2210 HARRISON AVE","",""
"04/12/2018","12:38","218CR0008973","JUVENILE MISC","JUVENILE MISC","************","",""
"04/12/2018","12:51","218CR0008975","INTIMIDATION","INTIMIDATION","1730 LOWELL","",""
"04/12/2018","12:53","218CR0008976","ALARM - BURGLARY","ALARM - BURGLARY","************","",""
"04/12/2018","12:56","218CR0008977","STOLEN VEHICLE","STOLEN VEHICLE","WYOMING AND SILVER","",""
"04/12/2018","13:04","218CR0008978","FOUND PROPERTY","FOUND PROPERTY","************","",""
"04/12/2018","13:29","218CR0008979","T/S","SPEEDING","CIVIC CENTER RD AND TEXAS","",""
"04/12/2018","13:37","218CR0008980","DRUGS","DRUGS","************","",""
"04/12/2018","13:41","218CR0008981","CIVIL PAPER SERVICE","CIVIL PAPER SERVICE","1125 S MAIN ATP 407","",""
"04/12/2018","14:26","218CR0008982","SUSPICIOUS ACTIVITY","SUSPICIOUS ACTIVITY","1800 BLK A ST","",""
"04/12/2018","14:29","218CR0008983","CRIMINAL TRESPASS","CRIMINAL TRESPASS","636 W BROADWAY","",""
"04/12/2018","14:31","218CR0008984","ALL OTHER","ALL OTHER","910 EVANS 4H","",""
"04/12/2018","14:52","218CR0008985","FIRE - OTHER","FIRE - OTHER","35 EAGLES NEST LANE","",""
"04/12/2018","14:53","218CR0008986","ALARM-DURESS","ALARM-DURESS","************","",""
"04/12/2018","15:24","218CR0008987","DETENTION BUSINESS","DETENTION BUSINESS","************","",""
"04/12/2018","15:32","218CR0008988","ALL OTHER","ALL OTHER","225 ALASKA ST","",""
"04/12/2018","15:35","218CR0008989","ALL OTHER","ALL OTHER","81 W PARK ST","",""
"04/12/2018","15:42","218CR0008990","THEFT","THEFT, ALL OTHERS","1320 TEXAS AVE","",""
"04/12/2018","15:56","218CR0008991","FOUND PROPERTY","FOUND PROPERTY","************","",""
"04/12/2018","16:01","218CR0008992","T/S","T/S","CONTINENTAL AND QUINCY","",""
"04/12/2018","16:01","218CR0008993","ALL OTHER","ALL OTHER","520 GERMAN GULCH RD","",""
"04/12/2018","16:16","218CR0008994","WANTED PERSON","UNLAWFUL POSSESSION OF FIREARM","1705 WALL ST","ARREST(s) MADE",""
"04/12/2018","16:27","218CR0008995","T/S","T/S","SHIELDS AND FARRELL","",""
"04/12/2018","16:34","218CR0008996","ALL OTHER","ALL OTHER","2825 WALNUT","",""
"04/12/2018","16:43","218CR0008997","MEDICAL - EMERGENCY","MEDICAL - EMERGENCY","1201 COBBAN","",""
"04/12/2018","16:53","218CR0008998","WELFARE CHECK","WELFARE CHECK","32 E GRANITE APT 3F","",""
"04/12/2018","17:05","218CR0008999","ACCIDENT","ACCIDENT","830 CALEDONIA","",""
"04/12/2018","18:08","218CR0009000","ASSAULT","ASSAULT","************","",""
"04/12/2018","18:12","218CR0009001","HARASSMENT","HARASSMENT","1817 FLORENCE","",""
"04/12/2018","18:43","218CR0009002","T/S","T/S","400 BLK S MAIN ST","",""
"04/12/2018","18:45","218CR0009003","MEDICAL - EMERGENCY","MEDICAL - EMERGENCY","531 S MONTANA","",""
"04/12/2018","18:50","218CR0009004","ASSIST OTHER AGENCY","ASSIST OTHER AGENCY","I90 MM 233 EB","",""
"04/12/2018","19:03","218CR0009005","HARASSMENT","HARASSMENT","634 W BROADWAY","",""
"04/12/2018","19:05","218CR0009006","DISTURBANCE","DISTURBANCE","2825 WALNUT","",""
"04/12/2018","19:28","218CR0009007","CIVIL PAPER SERVICE","CIVIL PAPER SERVICE","413 N WASHINGTON","",""
"04/12/2018","20:03","218CR0009008","WANTED PERSON","WANTED PERSON","************","",""
"04/12/2018","20:15","218CR0009009","DISTURBANCE","DISTURBANCE","1007 OREGON AVE","",""
"04/12/2018","20:33","218CR0009010","MEDICAL - EMERGENCY","MEDICAL - EMERGENCY","725 S DAKOTA ST","",""
"04/12/2018","20:52","218CR0009011","T/S","T/S @ DUNDEE ST AND HARRISON AVE","DUNDEE ST AND HARRISON AVE","",""
"04/12/2018","21:25","218CR0009012","T/S","T/S @ MARYLAND AND DEWEY","MARYLAND AND DEWEY","",""
"04/12/2018","21:36","218CR0009013","T/S","T/S @ PLATINUM AND MAIN","PLATINUM AND MAIN","",""
"04/12/2018","22:04","218CR0009014","ATL","ATL","PLATINUM AND MONTANA","",""
"04/12/2018","22:38","218CR0009015","DISTURBANCE","DISTURBANCE","318 S EXCELSIOR","",""
"04/12/2018","22:54","218CR0009016","LED BUSINESS","LED BUSINESS","400 S CLARK ST","",""
"04/12/2018","23:00","218CR0009017","T/S","OPERATING W/EXPIRED PLATES","HARRISON AND I90WB RAMP","",""
"04/12/2018","23:14","218CR0009018","T/S","T/S","PLATINUM AND IDAHO","",""
"04/12/2018","23:14","218CR0009019","WELFARE CHECK","WELFARE CHECK","1000 E FRONT ST","",""
"04/12/2018","23:33","218CR0009020","CITIZEN AID","CITIZEN AID","105 RAMPART DR #103","",""
"04/12/2018","23:47","218CR0009021","T/S","DRIVE WHILE SUSP. OR REVOKED","HARRISON AND ARGYLE","",""
"04/13/2018","00:28","218CR0009022","T/S","T/S @ MONTANA AND HOLLAND","MONTANA AND HOLLAND","",""
"04/13/2018","00:43","218CR0009023","SUSPICIOUS ACTIVITY","SUSPICIOUS ACTIVITY","DAKOTA ST AND PARK ST","",""
"04/13/2018","01:02","218CR0009024","T/S","T/S @ ROWE AND CLINTON","ROWE AND CLINTON","",""
"04/13/2018","01:04","218CR0009025","ALARM - BURGLARY","ALARM - BURGLARY","************","",""
"04/13/2018","01:28","218CR0009026","UNWANTED PERSON","UNWANTED PERSON","************","",""
"04/13/2018","01:40","218CR0009027","FOUND PROPERTY","FOUND PROPERTY","************","",""
"04/13/2018","01:42","218CR0009028","SUSPICIOUS ACTIVITY","SUSPICIOUS ACTIVITY","400 BLK S ARIZONA ST","",""
"04/13/2018","01:57","218CR0009029","WANTED PERSON","POSSESSION OF DANGEROUS DRUGS","MONTANA AND SILVER","ARREST(s) MADE",""
"04/13/2018","02:02","218CR0009030","UNKNOWN PROBLEM","CRIMINAL CONTEMPT","2050 JOHNS AVE","ARREST(s) MADE",""
"04/13/2018","02:59","218CR0009031","SUSPICIOUS ACTIVITY","POSSESSION OF DANGEROUS DRUGS","3499 HARRISON AVE","ARREST(s) MADE",""
"04/13/2018","04:13","218CR0009032","SUSPICIOUS ACTIVITY","RESISTING ARREST","MONTANA ST AND PLATINUM ST","ARREST(s) MADE",""
"04/13/2018","04:34","218CR0009033","BUSINESS CHECK","BUSINESS CHECK","531 S MONTANA","",""
"04/13/2018","04:47","218CR0009034","ALARM - BURGLARY","ALARM - BURGLARY","************","",""
"04/13/2018","06:30","218CR0009036","ACCIDENT","ACCIDENT","GALENA AND MONTANA","",""
"04/13/2018","06:39","218CR0009037","MEDICAL - EMERGENCY","MEDICAL - EMERGENCY","2700 HARRISON/ DAYS INN","",""
"04/13/2018","07:26","218CR0009038","CRIMINAL TRESPASS","CRIMINAL TRESPASS","1033 LEWISHON","",""
"04/13/2018","07:50","218CR0009039","MEDICAL - EMERGENCY","MEDICAL - EMERGENCY","2900 ELM ST","",""
 

BSB police report ending April 12, 2018

"04/11/2018","00:08","218CR0008812","BUSINESS CHECK","BUSINESS CHECK","531 S MONTANA","",""
"04/11/2018","00:10","218CR0008813","BUSINESS CHECK","BUSINESS CHECK","3700 HARRISON","",""
"04/11/2018","00:15","218CR0008814","UNWANTED PERSON","UNWANTED PERSON","************","",""
"04/11/2018","00:32","218CR0008815","MC COMPLAINT","MC COMPLAINT","200 BLK NEVERSWEAT","",""
"04/11/2018","01:24","218CR0008816","UNWANTED PERSON","UNWANTED PERSON","************","",""
"04/11/2018","01:30","218CR0008817","UNWANTED PERSON","UNWANTED PERSON","************","",""
"04/11/2018","01:52","218CR0008818","BUSINESS CHECK","BUSINESS CHECK","1370 HARRISON","",""
"04/11/2018","02:00","218CR0008819","MEDICAL - EMERGENCY","MEDICAL - EMERGENCY","17 S JACKSON","",""
"04/11/2018","03:29","218CR0008820","DISTURBANCE","DISTURBANCE","207 W PARK APT 7","",""
"04/11/2018","04:14","218CR0008821","ATL","ATL","525 E MERCURY ST","",""
"04/11/2018","04:18","218CR0008822","DISTURBANCE-NOISE","DISTURBANCE-NOISE","501 SILVERBOW HOMES","",""
"04/11/2018","04:42","218CR0008823","WANTED PERSON","POSSESS DRUG PARAPHERNALIA","901 E FRONT ST","ARREST(s) MADE",""
"04/11/2018","05:03","218CR0008824","TRAFFIC HAZARD","TRAFFIC HAZARD","I90 MM 227 1/2 E BOUND","",""
"04/11/2018","05:11","218CR0008825","FOUND PROPERTY","FOUND PROPERTY","************","",""
"04/11/2018","05:26","218CR0008826","SUSPICIOUS ACTIVITY","SUSPICIOUS ACTIVITY","1301 E SECOND ST","",""
"04/11/2018","05:37","218CR0008827","SUSPICIOUS ACTIVITY","SUSPICIOUS ACTIVITY","2500  BLK WALNUT","",""
"04/11/2018","05:40","218CR0008828","WELFARE CHECK","WELFARE CHECK","1125 S MAIN APT 202","",""
"04/11/2018","06:10","218CR0008829","SUSPICIOUS ACTIVITY","SUSPICIOUS ACTIVITY","I15 MM 132 NB","",""
"04/11/2018","06:26","218CR0008830","CITIZEN AID","CITIZEN AID","300 MOUNT HIGHLAND DR","",""
"04/11/2018","06:34","218CR0008831","ALARM - BURGLARY","ALARM - BURGLARY","************","",""
"04/11/2018","06:37","218CR0008832","UNKNOWN PROBLEM","UNKNOWN PROBLEM","1101 W SILVER ST","",""
"04/11/2018","07:11","218CR0008834","SUSPICIOUS ACTIVITY","SUSPICIOUS ACTIVITY","202 N MAIN WELLS FARGO BANK","",""
"04/11/2018","07:17","218CR0008835","STOLEN VEHICLE","STOLEN VEHICLE","BUTTE","",""
"04/11/2018","07:29","218CR0008836","FIRE - VEHICLE","FIRE - VEHICLE","2704 SILVER BOW BLVD","",""
"04/11/2018","07:30","218CR0008837","ASSIST OTHER AGENCY","ASSIST OTHER AGENCY","BSB LEA","",""
"04/11/2018","07:39","218CR0008838","ACCIDENT- INJURY(MHP)","ACCIDENT- INJURY(MHP)","MT 2 AT MM 79","",""
"04/11/2018","07:45","218CR0008839","ALARM - BURGLARY","ALARM - BURGLARY","************","",""
"04/11/2018","08:03","218CR0008840","CIVIL PAPER SERVICE","CIVIL PAPER SERVICE","2010 MONROE AVE","",""
"04/11/2018","08:10","218CR0008841","ACCIDENT","ACCIDENT","ZARELDA AND EXCELSIOR","",""
"04/11/2018","08:15","218CR0008842","T/S","T/S","NOYES AND UTAH AVE","",""
"04/11/2018","08:29","218CR0008843","THEFT","THEFT, ALL OTHERS","1821 LOWELL","",""
"04/11/2018","08:30","218CR0008844","CIVIL PAPER SERVICE","CIVIL PAPER SERVICE","4310 BLACKTAIL LOOP RD","",""
"04/11/2018","08:31","218CR0008845","CIVIL PAPER SERVICE","CIVIL PAPER SERVICE","2225 FAIRVIEW","",""
"04/11/2018","08:45","218CR0008846","CIVIL PAPER SERVICE","CIVIL PAPER SERVICE","1835 OREGON","",""
"04/11/2018","08:49","218CR0008847","CIVIL PAPER SERVICE","CIVIL PAPER SERVICE","18 EAST ALUMINUM","",""
"04/11/2018","08:56","218CR0008848","CIVIL PAPER SERVICE","CIVIL PAPER SERVICE","105 N PARKMONT","",""
"04/11/2018","09:05","218CR0008849","INFORMATION ONLY","INFORMATION ONLY","226 W SILVER # 26","",""
"04/11/2018","09:37","218CR0008850","CIVIL PAPER SERVICE","CIVIL PAPER SERVICE","633 W QUARTZ ST","",""
"04/11/2018","09:42","218CR0008851","WELFARE CHECK","WELFARE CHECK","2777 HARRISON AVE","",""
"04/11/2018","09:59","218CR0008852","DISTURBANCE","DISTURBANCE","2600 GRAND AVE","",""
"04/11/2018","10:04","218CR0008853","LED BUSINESS","LED BUSINESS","155 W GRANITE","",""
"04/11/2018","10:10","218CR0008854","T/S","OPERATING WITHOUT CURRENT REGI","FLORENCE AND B","",""
"04/11/2018","10:11","218CR0008855","DOMESTIC ABUSE","PFMA - REASONABLE APPREHENSION","1042 W PARK","",""
"04/11/2018","10:12","218CR0008856","THEFT","THEFT","","",""
"04/11/2018","10:27","218CR0008857","T/S","OPERATING WITHOUT CURRENT REGI","OTTAWA AND FLORENCE","",""
"04/11/2018","10:45","218CR0008858","MEDICAL - EMERGENCY","MEDICAL - EMERGENCY","3033 BUSCH ST APT 38","",""
"04/11/2018","10:51","218CR0008859","T/S","T/S @ CONTINENTAL AND FLORAL","CONTINENTAL AND FLORAL","",""
"04/11/2018","10:52","218CR0008860","T/S","T/S @ EXCELSIOR AT W ELEMENTARY","EXCELSIOR AT W ELEMENTARY","",""
"04/11/2018","10:59","218CR0008861","BURGLARY","BURGLARY","617 W SILVER ST","",""
"04/11/2018","11:13","218CR0008862","CITIZEN AID","CITIZEN AID","BSB PARKING GARAGE","",""
"04/11/2018","11:15","218CR0008863","ATL","ATL","EXCELSIOR AVE","",""
"04/11/2018","11:21","218CR0008864","RESTRAINING ORDER VIOLATION","RESTRAINING ORDER VIOLATION","************","",""
"04/11/2018","11:32","218CR0008865","T/S","DRIVE WHILE SUSP. OR REVOKED","MAJORS ST AND OREGON AVE","",""
"04/11/2018","12:20","218CR0008868","CIVIL PAPER SERVICE","CIVIL PAPER SERVICE","533 N FRANKLIN","",""
"04/11/2018","12:27","218CR0008870","THEFT","THEFT, ALL OTHERS","911 WAUKESHA","",""
"04/11/2018","12:32","218CR0008871","CIVIL PAPER SERVICE","CIVIL PAPER SERVICE","1130 MARYLAND","",""
"04/11/2018","12:50","218CR0008872","FRAUD","THEFT OF IDENTITY","225 N ALASKA ST","",""
"04/11/2018","12:50","218CR0008873","DISTURBANCE-NOISE","DISTURBANCE-NOISE","636 W BROADWAY","",""
"04/11/2018","12:51","218CR0008874","CIVIL PAPER SERVICE","CIVIL PAPER SERVICE","3 BENNETT","",""
"04/11/2018","13:05","218CR0008875","LED BUSINESS","LED BUSINESS","UPTOWN FOOT PATROL","",""
"04/11/2018","13:24","218CR0008877","DISTURBANCE-NOISE","DISTURBANCE-NOISE","636 W BROADWAY","",""
"04/11/2018","13:31","218CR0008878","UNWANTED PERSON","UNWANTED PERSON","************","",""
"04/11/2018","13:33","218CR0008879","DISTURBANCE","RESISTING ARREST","1838 PHILLIPS","ARREST(s) MADE",""
"04/11/2018","13:37","218CR0008880","T/S","T/S","JOANNS FABRICS","",""
"04/11/2018","13:39","218CR0008881","T/S","T/S @ CIVIC CENTER RD/HARRISON AVE","CIVIC CENTER RD/HARRISON AVE","",""
"04/11/2018","13:48","218CR0008882","WELFARE CHECK","WELFARE CHECK","803 W PARK ST","",""
"04/11/2018","14:15","218CR0008884","DISTURBANCE","DISTURBANCE","130 RAMPART DR","",""
"04/11/2018","14:21","218CR0008885","CIVIL PAPER SERVICE","CIVIL PAPER SERVICE","119011 BATTLE RIDGE ROAD","",""
"04/11/2018","14:22","218CR0008886","MEDICAL - EMERGENCY","MEDICAL - EMERGENCY","1730 HARRISON AVE","",""
"04/11/2018","14:34","218CR0008887","FIRE - OTHER","FIRE - OTHER","2510 FARRELL ST","",""
"04/11/2018","14:37","218CR0008888","MEDICAL - EMERGENCY","MEDICAL - EMERGENCY","155 W QUARTZ","",""
"04/11/2018","14:43","218CR0008889","THEFT","THEFT, SHOPLIFT","1301 HARRISON AVE","",""
"04/11/2018","14:57","218CR0008890","ALL OTHER","ALL OTHER","2219 SILVERBOW BLVD","",""
"04/11/2018","14:58","218CR0008891","WELFARE CHECK","WELFARE CHECK","803 COYOTE LANE","",""
"04/11/2018","15:15","218CR0008892","SUSPICIOUS ACTIVITY","SUSPICIOUS ACTIVITY","400 BLK S MAIN ST","",""
"04/11/2018","15:31","218CR0008893","DISTURBANCE","DISTURBANCE","DAKOTA ST AND PARK ST","",""
"04/11/2018","15:44","218CR0008894","BUSINESS CHECK","BUSINESS CHECK","2100 YALE AVE LISACS TIRE","",""
"04/11/2018","15:45","218CR0008895","WANTED PERSON","POSSESS DRUG PARAPHERNALIA","200 BLK S WASHINGTON ST","ARREST(s) MADE",""
"04/11/2018","15:47","218CR0008897","UNWANTED PERSON","CRIMINAL TRESPASS TO PROPERTY","1 E BROADWAY #7","",""
"04/11/2018","15:47","218CR0008896","T/S","T/S @ FARRAGUT AND NETTIE","FARRAGUT AND NETTIE","",""
"04/11/2018","15:51","218CR0008898","ALL OTHER","ALL OTHER","400 S CLARK ST","",""
"04/11/2018","15:52","218CR0008899","T/S","T/S @ CLARK AND PARK","CLARK AND PARK","",""
"04/11/2018","16:00","218CR0008900","ATL","ATL","CENTENIAL AND MONTANA","",""
"04/11/2018","16:10","218CR0008901","MEDICAL - EMERGENCY","MEDICAL - EMERGENCY","2110 HARVARD AVE","",""
"04/11/2018","16:14","218CR0008902","T/S","OPERATING WITHOUT CURRENT REGI","PARK AND ALABAMA","ARREST(s) MADE",""
"04/11/2018","16:18","218CR0008903","FOUND PROPERTY","FOUND PROPERTY","************","",""
"04/11/2018","16:41","218CR0008904","PARKING COMPLAINT","PARKING COMPLAINT","115 N PARKMONT","",""
"04/11/2018","16:41","218CR0008905","ACCIDENT","ACCIDENT","2902 HARRISON AVE","",""
"04/11/2018","16:51","218CR0008906","WELFARE CHECK","FAILURE TO DISPERSE","1 E BROADWAY","ARREST(s) MADE",""
"04/11/2018","17:02","218CR0008907","ABANDONED VEHICLE","ABANDONED VEHICLE","225 N ALASKA ST","",""
"04/11/2018","17:26","218CR0008908","T/S","T/S @ ","","",""
"04/11/2018","17:47","218CR0008909","JUVENILE MISC","JUVENILE MISC","************","",""
"04/11/2018","17:57","218CR0008910","SUSPICIOUS ACTIVITY","SUSPICIOUS ACTIVITY","CAROLINA ST AND LOCUST ST","",""
"04/11/2018","18:16","218CR0008911","MEDICAL - EMERGENCY","MEDICAL - EMERGENCY","3901 HARRISON AVE","",""
"04/11/2018","18:20","218CR0008912","CIVIL PAPER SERVICE","CIVIL PAPER SERVICE","2901 BARTLETT #B","",""
"04/11/2018","18:26","218CR0008913","ALL OTHER","ALL OTHER","533 N FRANKLIN ST","",""
"04/11/2018","18:29","218CR0008914","T/S","T/S","HARRISON AVE AND AMHERST","",""
"04/11/2018","18:33","218CR0008915","SUSPICIOUS ACTIVITY","SUSPICIOUS ACTIVITY","1859 GARRISON AVE","",""
"04/11/2018","18:50","218CR0008916","CIVIL PAPER SERVICE","CIVIL PAPER SERVICE","1835 OREGON","",""
"04/11/2018","18:55","218CR0008917","SUICIDE ATTEMPT/THREAT","SUICIDE ATTEMPT/THREAT","************","",""
"04/11/2018","19:22","218CR0008918","HARASSMENT","HARASSMENT","3311 SANDERS","",""
"04/11/2018","19:32","218CR0008919","T/S","T/S @ CONTINENTAL AND ELM","CONTINENTAL AND ELM","",""
"04/11/2018","19:41","218CR0008920","HARASSMENT","HARASSMENT","3401 SANDERS","",""
"04/11/2018","20:00","218CR0008921","CIVIL PAPER SERVICE","CIVIL PAPER SERVICE","2420 HARVARD","",""
"04/11/2018","20:14","218CR0008922","THEFT","THEFT","3101 WYNNE AVE","",""
"04/11/2018","20:20","218CR0008923","ASSIST OTHER AGENCY","ASSIST OTHER AGENCY","I15 MM 154 NB","",""
"04/11/2018","20:25","218CR0008924","SUSPICIOUS ACTIVITY","SUSPICIOUS ACTIVITY","2544 HARRISON LISACS TRISTOP","",""
"04/11/2018","20:29","218CR0008925","THEFT","THEFT","1370 HARRISON AVE","",""
"04/11/2018","20:45","218CR0008926","FRAUD","FRAUD","1900 S MONTANA ST","",""
"04/11/2018","21:02","218CR0008927","WELFARE CHECK","WELFARE CHECK","1415 SAGE","",""
"04/11/2018","21:23","218CR0008928","T/S","T/S @ 1370 HARRISON/TOWN PUMP","1370 HARRISON/TOWN PUMP","",""
"04/11/2018","21:36","218CR0008929","T/S","T/S @ HOWARD ST AND GRAND AVE","HOWARD ST AND GRAND AVE","",""
"04/11/2018","21:45","218CR0008930","T/S","T/S @ GRAND AND ADAMS","GRAND AND ADAMS","",""
"04/11/2018","22:07","218CR0008931","WELFARE CHECK","WELFARE CHECK","304 N MAIN ST","",""
"04/11/2018","22:09","218CR0008932","SUSPICIOUS ACTIVITY","SUSPICIOUS ACTIVITY","FATHER SHEEHAN PARK","",""
"04/11/2018","22:31","218CR0008933","DISTURBANCE","DISTURBANCE","2100 CORNELL ROOM 147","",""
"04/11/2018","22:38","218CR0008934","MEDICAL - EMERGENCY","MEDICAL - EMERGENCY","10 BITTERSWEET DR","",""
"04/11/2018","22:44","218CR0008935","T/S","OPERATING W/EXPIRED PLATES","IRON ST AND WASHINGTON ST","ARREST(s) MADE",""
"04/11/2018","23:31","218CR0008936","ALARM - BURGLARY","ALARM - BURGLARY","************","",""
"04/11/2018","23:37","218CR0008937","MEDICAL - EMERGENCY","MEDICAL - EMERGENCY","2825 FARRAGUT AVE #E103","",""
"04/11/2018","23:47","218CR0008938","SUSPICIOUS ACTIVITY","SUSPICIOUS ACTIVITY","MONTANA AND PARK","",""
"04/11/2018","23:55","218CR0008939","SUSPICIOUS ACTIVITY","DRIVE WHILE SUSP. OR REVOKED","600 BLK S DAKOTA","ARREST(s) MADE",""
"04/12/2018","00:19","218CR0008940","T/S","T/S @ 20 S MONTANA DUBLIN BAR","20 S MONTANA DUBLIN BAR","",""
"04/12/2018","00:25","218CR0008941","ACCIDENT","DUI DRUGS OR ALCOHOL","WYNNE AND CLEVELAND","ARREST(s) MADE",""
"04/12/2018","00:57","218CR0008942","CIVIL STANDBY","CIVIL STANDBY","102 SILVERBOW HOMES","",""
"04/12/2018","01:08","218CR0008943","ALARM - BURGLARY","ALARM - BURGLARY","************","",""
"04/12/2018","02:18","218CR0008944","T/S","T/S","FARRELL AND ADAMS","",""
"04/12/2018","03:10","218CR0008945","ATL","PROTECTIVE CUSTODY","400 S CLARK ST","",""
"04/12/2018","04:41","218CR0008946","SUSPICIOUS ACTIVITY","SUSPICIOUS ACTIVITY","3934 WYNNE AVE","",""
"04/12/2018","05:18","218CR0008947","SUSPICIOUS ACTIVITY","SUSPICIOUS ACTIVITY","3878 PAXSON AVE","",""
"04/12/2018","05:18","218CR0008948","BUSINESS CHECK","BUSINESS CHECK","531 S MONTANA","",""
"04/12/2018","06:51","218CR0008950","MEDICAL - EMERGENCY","MEDICAL - EMERGENCY","2201 LOCUST","",""
"04/12/2018","06:58","218CR0008951","THEFT","THEFT","2100 CORNELL","",""
"04/12/2018","07:58","218CR0008952","CIVIL PAPER SERVICE","CIVIL PAPER SERVICE","3434 CARTER ST","",""
 

BSB police report ending April 11, 2018

"04/10/2018","00:17","218CR0008701","DISTURBANCE","PFMA - REASONABLE APPREHENSION","657 S COLORADO","ARREST(s) MADE",""
"04/10/2018","00:29","218CR0008702","DOMESTIC ABUSE","PFMA - MINOR INJ/PHYSICAL CONT","2901 BARTLETT APT D","ARREST(s) MADE",""
"04/10/2018","01:16","218CR0008703","ALARM - MEDICAL","ALARM - MEDICAL","************","",""
"04/10/2018","06:14","218CR0008704","LED BUSINESS","LED BUSINESS","155 W GRANITE","",""
"04/10/2018","06:46","218CR0008705","UNKNOWN PROBLEM","BURGLARY, RESIDENCE","815 EMPIRE","",""
"04/10/2018","06:58","218CR0008706","CIVIL PAPER SERVICE","CIVIL PAPER SERVICE","155 W QUARTZ","",""
"04/10/2018","07:06","218CR0008707","MEDICAL - EMERGENCY","MEDICAL - EMERGENCY","1515 OREGON #704","",""
"04/10/2018","07:22","218CR0008708","T/S","DRIVE WHILE SUSP. OR REVOKED","MONTANA AND MERCURY","",""
"04/10/2018","07:35","218CR0008709","ABANDONED VEHICLE","ABANDONED VEHICLE","FRONT AND OREGON","",""
"04/10/2018","07:38","218CR0008710","CIVIL PAPER SERVICE","CIVIL PAPER SERVICE","1021 1/2 E FRONT","",""
"04/10/2018","07:49","218CR0008711","LED BUSINESS","LED BUSINESS","155 W GRANITE ST","",""
"04/10/2018","07:55","218CR0008712","CRIMINAL TRESPASS","CRIMINAL TRESPASS","519 W GALENA","",""
"04/10/2018","08:01","218CR0008713","T/S","HABITUAL OFFENDER OPER. VEH","ALUMINUM AND MONTANA","ARREST(s) MADE",""
"04/10/2018","08:10","218CR0008714","SUSPICIOUS ACTIVITY","SUSPICIOUS ACTIVITY","600 BLK S MAIN","",""
"04/10/2018","08:14","218CR0008715","THEFT","THEFT, ALL OTHERS","4055 PAXSON","",""
"04/10/2018","08:27","218CR0008716","T/S","T/S","500 BLK S MONTANA","",""
"04/10/2018","08:38","218CR0008717","T/S","T/S","PLATINUM ST AND PLR","",""
"04/10/2018","08:48","218CR0008718","T/S","T/S","600 BLK S MONTANA","",""
"04/10/2018","08:52","218CR0008719","T/S","T/S","MONTANA IRON","",""
"04/10/2018","08:53","218CR0008721","DETENTION BUSINESS","DETENTION BUSINESS","************","",""
"04/10/2018","08:53","218CR0008720","T/S","T/S @ HARRISON AND AMHERST","HARRISON AND AMHERST","",""
"04/10/2018","09:03","218CR0008722","T/S","T/S","FRONT AND CALIFORNIA","",""
"04/10/2018","09:12","218CR0008724","FIRE- GAS ODOR","FIRE- GAS ODOR","315 S JACKSON","",""
"04/10/2018","09:13","218CR0008723","T/S","T/S","2000 BLK HARRISON AVE","",""
"04/10/2018","09:30","218CR0008725","T/S","T/S","HARRISON AND MEADOWLARK","",""
"04/10/2018","09:32","218CR0008726","CIVIL PAPER SERVICE","CIVIL PAPER SERVICE","808 W SILVER","",""
"04/10/2018","09:36","218CR0008727","CIVIL STANDBY","CIVIL STANDBY","225 N ALASKA ST","",""
"04/10/2018","09:41","218CR0008728","T/S","T/S","1000 BLK S MONTANA","",""
"04/10/2018","09:48","218CR0008729","CITIZEN AID","CITIZEN AID","1000 GRIZZLY TRAIL","",""
"04/10/2018","10:07","218CR0008730","DETENTION BUSINESS","DETENTION BUSINESS","************","",""
"04/10/2018","10:31","218CR0008731","THEFT","THEFT","BUTTE HIGH SCHOOL","",""
"04/10/2018","10:33","218CR0008732","WELFARE CHECK","POSSESSION OF DANGEROUS DRUGS","2777 HARRISON AVE","ARREST(s) MADE",""
"04/10/2018","10:42","218CR0008733","UNWANTED PERSON","UNWANTED PERSON","************","",""
"04/10/2018","10:44","218CR0008734","T/S","T/S","1300 BLK DEWEY BLVD","",""
"04/10/2018","10:53","218CR0008736","LED BUSINESS","LED BUSINESS","155 W GRANITE","",""
"04/10/2018","10:53","218CR0008735","T/S","T/S @ SECOND AND MONTANA","SECOND AND MONTANA","",""
"04/10/2018","11:01","218CR0008738","ACCIDENT","ACCIDENT","400 S CLARK ST","",""
"04/10/2018","11:04","218CR0008739","FRAUD","DECEPTIVE PRACT - CREDIT CARD","2609 HARRISON","",""
"04/10/2018","11:06","218CR0008740","INFORMATION ONLY","INFORMATION ONLY","3301 MANTLE ST","",""
"04/10/2018","11:11","218CR0008741","T/S","T/S","GRAND AND STUART","",""
"04/10/2018","11:29","218CR0008742","LOST OR STOLEN PROPERTY","LOST OR STOLEN PROPERTY","405 W QUARTZ","",""
"04/10/2018","11:34","218CR0008743","T/S","T/S","ALUMINUM AND MONTANA","",""
"04/10/2018","11:54","218CR0008745","SUSPICIOUS ACTIVITY","SUSPICIOUS ACTIVITY","ELIZABETH WARREN AND PAXSON","",""
"04/10/2018","11:57","218CR0008744","T/S","T/S @ MAIN AND COPPER","MAIN AND COPPER","",""
"04/10/2018","12:21","218CR0008747","T/S","T/S","ARIZONA AND BROADWAY","",""
"04/10/2018","12:29","218CR0008748","CIVIL PAPER SERVICE","CIVIL PAPER SERVICE","318 GRANIT MOUNTAIN RD","",""
"04/10/2018","13:00","218CR0008750","TRAFFIC","TRAFFIC","550 E MERCURY MAC CENTER","",""
"04/10/2018","13:01","218CR0008751","LED BUSINESS","LED BUSINESS","UPTOWN FOOT PATROL","",""
"04/10/2018","13:22","218CR0008752","T/S","T/S @ 2900 BLK HARRISON AVE","2900 BLK HARRISON AVE","",""
"04/10/2018","13:27","218CR0008753","MEDICAL - ASSIST","MEDICAL - ASSIST","************","",""
"04/10/2018","13:30","218CR0008754","THEFT","THEFT, SHOPLIFT","1370 HARRISON","",""
"04/10/2018","13:35","218CR0008755","WANTED PERSON","CRIMINAL CONTEMPT","PARK AND ARIZONA","ARREST(s) MADE",""
"04/10/2018","13:56","218CR0008757","HIT AND RUN","HIT AND RUN","3901 HARRISON AVE","",""
"04/10/2018","14:00","218CR0008758","UNWANTED PERSON","UNWANTED PERSON","************","",""
"04/10/2018","14:07","218CR0008759","ABANDONED VEHICLE","ABANDONED VEHICLE","BROADWAY AND CLARK","",""
"04/10/2018","14:28","218CR0008760","WANTED PERSON","CRIMINAL CONTEMPT","FRONT AND UTAH","ARREST(s) MADE",""
"04/10/2018","14:32","218CR0008761","SUSPICIOUS ACTIVITY","SUSPICIOUS ACTIVITY","CONTINENTAL DR AND ELM ST","",""
"04/10/2018","14:39","218CR0008762","BUSINESS CHECK","BUSINESS CHECK","531 S MONTANA","",""
"04/10/2018","14:40","218CR0008763","MEDICAL - EMERGENCY","MEDICAL - EMERGENCY","50 W BROADWAY","",""
"04/10/2018","14:59","218CR0008764","T/S","OPERATING WITHOUT CURRENT REGI","MERCURY AND MONTANA","",""
"04/10/2018","15:01","218CR0008765","T/S","T/S","ELIZABETH WARREN AND CONTINENT","",""
"04/10/2018","15:05","218CR0008766","T/S","T/S","225 N ALASKA ST","",""
"04/10/2018","15:24","218CR0008767","BURGLARY","BURGLARY, RESIDENCE","JOHNSON CREEK RD","",""
"04/10/2018","15:26","218CR0008768","T/S","T/S @ 1900 BLK UTAH","1900 BLK UTAH","",""
"04/10/2018","15:30","218CR0008769","HIT AND RUN","HIT AND RUN","333 S ARIZONA ST","",""
"04/10/2018","15:31","218CR0008770","OPEN BUILDING","OPEN BUILDING","208 OHIO ST","",""
"04/10/2018","15:35","218CR0008771","MEDICAL - EMERGENCY","MEDICAL - EMERGENCY","2020 THOMAS","",""
"04/10/2018","15:36","218CR0008772","T/S","NO LIABILITY INSURANCE IN EFF.","MONROE AND GRAND","",""
"04/10/2018","15:46","218CR0008773","T/S","T/S @ GRAND AND FARRAGUT","GRAND AND FARRAGUT","",""
"04/10/2018","16:16","218CR0008774","FIRE- GAS ODOR","FIRE- GAS ODOR","647 W GRANITE","",""
"04/10/2018","16:28","218CR0008775","SUSPICIOUS ACTIVITY","SUSPICIOUS ACTIVITY","1285 HARRISON","",""
"04/10/2018","16:29","218CR0008776","STOLEN VEHICLE","MOTOR VEHICLE THEFT","362 E GALENA","",""
"04/10/2018","16:31","218CR0008777","ALARM - BURGLARY","ALARM - BURGLARY","************","",""
"04/10/2018","16:50","218CR0008778","RESTRAINING ORDER VIOLATION","RESTRAINING ORDER VIOLATION","************","",""
"04/10/2018","16:52","218CR0008779","ANIMAL COMPLAINT","ANIMAL COMPLAINT","118 N IDAHO","",""
"04/10/2018","17:02","218CR0008780","T/S","T/S @ FRONT ST AND UTAH ST","FRONT ST AND UTAH ST","",""
"04/10/2018","17:16","218CR0008781","UNWANTED PERSON","UNWANTED PERSON","************","",""
"04/10/2018","17:17","218CR0008782","WELFARE CHECK","WELFARE CHECK","305 VIRGINIA","",""
"04/10/2018","17:21","218CR0008783","SUSPICIOUS ACTIVITY","SUSPICIOUS ACTIVITY","1600 BLK FLORENCE AVE","",""
"04/10/2018","17:21","218CR0008784","SUSPICIOUS ACTIVITY","SUSPICIOUS ACTIVITY","1100 DELAWARE","",""
"04/10/2018","17:32","218CR0008785","THEFT","THEFT","1295 HARRISON","",""
"04/10/2018","17:36","218CR0008786","BURGLARY","BURGLARY, RESIDENCE","616 S WASHINGTON ST","",""
"04/10/2018","17:50","218CR0008787","MEDICAL - EMERGENCY","MEDICAL - EMERGENCY","155 W QUARTZ","",""
"04/10/2018","18:16","218CR0008788","SUICIDE ATTEMPT/THREAT","SUICIDE ATTEMPT/THREAT","************","",""
"04/10/2018","18:35","218CR0008789","SUSPICIOUS ACTIVITY","SUSPICIOUS ACTIVITY","815 EMPIRE ST","",""
"04/10/2018","18:40","218CR0008790","ALL OTHER","HIT AND RUN, HIGHWAY FIXTURES","415 W IRON","",""
"04/10/2018","19:00","218CR0008791","SUSPICIOUS ACTIVITY","SUSPICIOUS ACTIVITY","GOLD AND WASHINGTON","",""
"04/10/2018","19:07","218CR0008792","PARKING COMPLAINT","PARKING COMPLAINT","1325 W QUARTZ","",""
"04/10/2018","19:11","218CR0008793","MEDICAL - EMERGENCY","MEDICAL - EMERGENCY","444 GLACIER LILLY LANE","",""
"04/10/2018","19:19","218CR0008794","ALL OTHER","ALL OTHER","924 W QUARTZ","",""
"04/10/2018","19:33","218CR0008795","MEDICAL - EMERGENCY","MEDICAL - EMERGENCY","2825 FARRAGUT #C101","",""
"04/10/2018","19:43","218CR0008796","ALARM - BURGLARY","ALARM - BURGLARY","************","",""
"04/10/2018","19:47","218CR0008797","WELFARE CHECK","WELFARE CHECK","633 S IDAHO ST","",""
"04/10/2018","20:04","218CR0008798","CRIMINAL TRESPASS","CRIMINAL TRESPASS","905 GAYLORD PACIFIC STEEL","",""
"04/10/2018","20:36","218CR0008799","ALL OTHER","ALL OTHER","ARGYLE AND HARRISON","",""
"04/10/2018","20:43","218CR0008800","CITIZEN AID","CITIZEN AID","116540 S BUXTON RD","",""
"04/10/2018","20:50","218CR0008801","ASSIST OTHER AGENCY","ASSIST OTHER AGENCY","107 RAMPART","",""
"04/10/2018","21:19","218CR0008802","TRAFFIC","TRAFFIC","WOOLMAN AND N WYOMING","",""
"04/10/2018","21:29","218CR0008803","T/S","T/S","HOLMES AND WYNNE","",""
"04/10/2018","21:35","218CR0008804","JUVENILE RUNAWAY","UNGOVERNABLE JUVENILE","3202 YALE AVE","ARREST(s) MADE",""
"04/10/2018","21:47","218CR0008805","DISTURBANCE","DISTURBANCE","910 EVANS APT B2","",""
"04/10/2018","22:41","218CR0008806","T/S","T/S @ SILVERBOW BLVD AND TEXAS AVE","SILVERBOW BLVD AND TEXAS AVE","",""
"04/10/2018","22:56","218CR0008807","THEFT","THEFT","815 EMPIRE ST","",""
"04/10/2018","23:19","218CR0008808","T/S","T/S @ HARRISON AND MEADOWLARK","HARRISON AND MEADOWLARK","",""
"04/10/2018","23:23","218CR0008809","BUSINESS CHECK","BUSINESS CHECK","3700 HARRISON","",""
"04/10/2018","23:40","218CR0008810","JUVENILE RUNAWAY","JUVENILE RUNAWAY","************","",""
"04/10/2018","23:58","218CR0008811","SUSPICIOUS ACTIVITY","SUSPICIOUS ACTIVITY","GEORGE AND KAW","",""
"04/11/2018","00:08","218CR0008812","BUSINESS CHECK","BUSINESS CHECK","531 S MONTANA","",""
"04/11/2018","00:10","218CR0008813","BUSINESS CHECK","BUSINESS CHECK","3700 HARRISON","",""
"04/11/2018","00:15","218CR0008814","UNWANTED PERSON","UNWANTED PERSON","************","",""
"04/11/2018","00:32","218CR0008815","MC COMPLAINT","MC COMPLAINT","200 BLK NEVERSWEAT","",""
"04/11/2018","01:24","218CR0008816","UNWANTED PERSON","UNWANTED PERSON","************","",""
"04/11/2018","01:30","218CR0008817","UNWANTED PERSON","UNWANTED PERSON","************","",""
"04/11/2018","01:52","218CR0008818","BUSINESS CHECK","BUSINESS CHECK","1370 HARRISON","",""
"04/11/2018","02:00","218CR0008819","MEDICAL - EMERGENCY","MEDICAL - EMERGENCY","17 S JACKSON","",""
"04/11/2018","03:29","218CR0008820","DISTURBANCE","DISTURBANCE","207 W PARK APT 7","",""
"04/11/2018","04:14","218CR0008821","ATL","ATL","525 E MERCURY ST","",""
"04/11/2018","04:18","218CR0008822","DISTURBANCE-NOISE","DISTURBANCE-NOISE","501 SILVERBOW HOMES","",""
"04/11/2018","04:42","218CR0008823","WANTED PERSON","POSSESS DRUG PARAPHERNALIA","901 E FRONT ST","ARREST(s) MADE",""
"04/11/2018","05:03","218CR0008824","TRAFFIC HAZARD","TRAFFIC HAZARD","I90 MM 227 1/2 E BOUND","",""
"04/11/2018","05:11","218CR0008825","FOUND PROPERTY","FOUND PROPERTY","************","",""
"04/11/2018","05:26","218CR0008826","SUSPICIOUS ACTIVITY","SUSPICIOUS ACTIVITY","1301 E SECOND ST","",""
"04/11/2018","05:37","218CR0008827","SUSPICIOUS ACTIVITY","SUSPICIOUS ACTIVITY","2500  BLK WALNUT","",""
"04/11/2018","05:40","218CR0008828","WELFARE CHECK","WELFARE CHECK","1125 S MAIN APT 202","",""
"04/11/2018","06:10","218CR0008829","SUSPICIOUS ACTIVITY","SUSPICIOUS ACTIVITY","I15 MM 132 NB","",""
"04/11/2018","06:26","218CR0008830","CITIZEN AID","CITIZEN AID","300 MOUNT HIGHLAND DR","",""
"04/11/2018","06:34","218CR0008831","ALARM - BURGLARY","ALARM - BURGLARY","************","",""
"04/11/2018","06:37","218CR0008832","UNKNOWN PROBLEM","UNKNOWN PROBLEM","1101 W SILVER ST","",""
"04/11/2018","07:11","218CR0008834","SUSPICIOUS ACTIVITY","SUSPICIOUS ACTIVITY","202 N MAIN WELLS FARGO BANK","",""
"04/11/2018","07:17","218CR0008835","STOLEN VEHICLE","STOLEN VEHICLE","","",""
"04/11/2018","07:30","218CR0008837","ASSIST OTHER AGENCY","ASSIST OTHER AGENCY","BSB LEA","",""
"04/11/2018","08:03","218CR0008840","CIVIL PAPER SERVICE","CIVIL PAPER SERVICE","2010 MONROE AVE","",""
 

BSB police report ending April 10, 2018

"04/09/2018","00:20","218CR0008615","BUSINESS CHECK","BUSINESS CHECK","1370 HARRISON TOWN PUMP","",""
"04/09/2018","00:24","218CR0008616","WANTED PERSON","WANTED PERSON","************","",""
"04/09/2018","00:29","218CR0008617","T/S","T/S","SILVER AND MONTANA","",""
"04/09/2018","00:32","218CR0008618","SUSPICIOUS ACTIVITY","SUSPICIOUS ACTIVITY","1800 BLK WILSON","",""
"04/09/2018","01:16","218CR0008619","SUSPICIOUS ACTIVITY","SUSPICIOUS ACTIVITY","1021 S ARIZONA","",""
"04/09/2018","01:28","218CR0008620","CITIZEN AID","CITIZEN AID","2612 SILVERBOW BLVD","",""
"04/09/2018","01:37","218CR0008621","MEDICAL - EMERGENCY","MEDICAL - EMERGENCY","1936 FLORIDA","",""
"04/09/2018","02:50","218CR0008622","SUSPICIOUS ACTIVITY","CRIMINAL CONTEMPT","400 BLK OHIO","ARREST(s) MADE",""
"04/09/2018","03:19","218CR0008623","BUSINESS CHECK","BUSINESS CHECK","531 S MONTANA","",""
"04/09/2018","03:50","218CR0008624","SUSPICIOUS ACTIVITY","SUSPICIOUS ACTIVITY","2500 BLK BAYARD","",""
"04/09/2018","04:01","218CR0008625","MEDICAL - EMERGENCY","MEDICAL - EMERGENCY","FLYING J 122000 BROWNS GLCH RD","",""
"04/09/2018","05:29","218CR0008626","STOLEN VEHICLE","MOTOR VEHICLE THEFT","677 S ALABAMA","",""
"04/09/2018","07:20","218CR0008627","CIVIL PAPER SERVICE","CIVIL PAPER SERVICE","318 GRANITE MOUNTAIN ROAD","",""
"04/09/2018","07:26","218CR0008628","T/S","T/S","PLATINUM AND EXCEL","",""
"04/09/2018","07:36","218CR0008630","VANDALISM/CRIMINAL MISCHIEF","CRIMINAL MISCHIEF","14 W FREMONT","",""
"04/09/2018","07:36","218CR0008629","T/S","T/S","1200 BK HARRISON","",""
"04/09/2018","07:53","218CR0008631","SUSPICIOUS ACTIVITY","SUSPICIOUS ACTIVITY","634 BASIN CREEK RD","",""
"04/09/2018","08:06","218CR0008632","BUSINESS CHECK","BUSINESS CHECK","604 W ALUMINUM","",""
"04/09/2018","08:20","218CR0008633","LED BUSINESS","LED BUSINESS","155 WEST GRANITE ST","",""
"04/09/2018","08:35","218CR0008634","DETENTION BUSINESS","DETENTION BUSINESS","************","",""
"04/09/2018","08:39","218CR0008635","BURGLARY","BURGLARY, RESIDENCE","1305 S MAIN","",""
"04/09/2018","09:16","218CR0008636","CIVIL PAPER SERVICE","CIVIL PAPER SERVICE","808 W SILVER","",""
"04/09/2018","09:24","218CR0008638","VANDALISM/CRIMINAL MISCHIEF","CRIMINAL MISCHIEF","9 W CENTER","",""
"04/09/2018","09:25","218CR0008637","WELFARE CHECK","WELFARE CHECK","820 CALEDONIA ST","",""
"04/09/2018","09:32","218CR0008639","INFORMATION ONLY","INFORMATION ONLY","119130 GERMAN GULCH RD","",""
"04/09/2018","09:40","218CR0008640","MEDICAL - EMERGENCY","MEDICAL - EMERGENCY","501 S COLORADO","",""
"04/09/2018","09:45","218CR0008641","TRAFFIC","TRAFFIC","STODDEN PARK","",""
"04/09/2018","09:52","218CR0008642","ALARM - FIRE","ALARM - FIRE","3901 ELIZABETH WARREN","",""
"04/09/2018","10:08","218CR0008643","LED BUSINESS","LED BUSINESS","24 E COPPER","",""
"04/09/2018","10:24","218CR0008644","LOST OR STOLEN PROPERTY","DECEPTIVE PRACT - CREDIT CARD","BUTTE AREA","",""
"04/09/2018","10:32","218CR0008645","FRAUD","FORGERY/COUNTERFEIT","1101 W GOLD","",""
"04/09/2018","10:36","218CR0008646","HARASSMENT","HARASSMENT","119152 BATTLE RIDGE RD","",""
"04/09/2018","10:41","218CR0008647","T/S","T/S @ TEXAS AND GRAND","TEXAS AND GRAND","",""
"04/09/2018","10:51","218CR0008648","STOLEN VEHICLE","UNAUTHORIZED USE OF MOTOR VEH","105 TRINITY LOOP","",""
"04/09/2018","11:07","218CR0008649","MEDICAL - EMERGENCY","MEDICAL - EMERGENCY","3400 HILL APT 1004","",""
"04/09/2018","11:20","218CR0008650","SUSPICIOUS ACTIVITY","SUSPICIOUS ACTIVITY","2101 HARRISON AVE","",""
"04/09/2018","11:40","218CR0008651","MEDICAL - EMERGENCY","MEDICAL - EMERGENCY","3637 HARRISON","",""
"04/09/2018","11:42","218CR0008652","FIRE - STRUCTURE","FIRE - STRUCTURE","17 S MAIN ST","",""
"04/09/2018","11:53","218CR0008653","CRIMINAL TRESPASS","CRIMINAL TRESPASS","1855 WALL ST","",""
"04/09/2018","12:00","218CR0008654","WANTED PERSON","WANTED PERSON","************","",""
"04/09/2018","12:04","218CR0008655","SUSPICIOUS ACTIVITY","SUSPICIOUS ACTIVITY","901 E FRONT ST","",""
"04/09/2018","12:30","218CR0008657","THEFT","THEFT","WYOMING AND SILVER","",""
"04/09/2018","12:44","218CR0008658","ABANDONED VEHICLE","ABANDONED VEHICLE","2914 YALE","",""
"04/09/2018","12:51","218CR0008659","ASSIST OTHER AGENCY","ASSIST OTHER AGENCY","400 S CLARK ST","",""
"04/09/2018","13:04","218CR0008661","THEFT","THEFT","295 STAGECOACH RD","",""
"04/09/2018","13:05","218CR0008660","CRIMINAL TRESPASS","CRIMINAL TRESPASS","20 W SILVER","",""
"04/09/2018","13:19","218CR0008663","ACCIDENT","ACCIDENT","DEWEY AND BUSCH","",""
"04/09/2018","13:28","218CR0008664","INFORMATION ONLY","INFORMATION ONLY","47 W PARK ST","",""
"04/09/2018","14:09","218CR0008666","UNKNOWN PROBLEM","BUY/POSSESS STOLEN PROPERTY","905 N EXCELSIOR","ARREST(s) MADE",""
"04/09/2018","14:09","218CR0008665","MEDICAL - EMERGENCY","MEDICAL - EMERGENCY","845 17TH STREET","",""
"04/09/2018","14:23","218CR0008667","FIRE- GAS ODOR","FIRE- GAS ODOR","105 RAMPART DR","",""
"04/09/2018","14:25","218CR0008668","FOUND PROPERTY","FOUND PROPERTY","************","",""
"04/09/2018","14:35","218CR0008669","DISTURBANCE","DISTURBANCE","2870 SILVER BOW BLVD","",""
"04/09/2018","15:29","218CR0008670","SUSPICIOUS ACTIVITY","SUSPICIOUS ACTIVITY","617 W SILVER ST","",""
"04/09/2018","15:33","218CR0008671","VANDALISM/CRIMINAL MISCHIEF","VANDALISM/CRIMINAL MISCHIEF","1961 LOCUST ST","",""
"04/09/2018","16:04","218CR0008672","HARASSMENT","HARASSMENT","1801 OREGON","",""
"04/09/2018","16:14","218CR0008673","MISSING PERSON","MISSING PERSON","************","",""
"04/09/2018","16:17","218CR0008674","FIRE- GAS ODOR","FIRE- GAS ODOR","3038 PHILLIPS ST","",""
"04/09/2018","16:21","218CR0008675","T/S","T/S","","",""
"04/09/2018","17:00","218CR0008676","DISTURBANCE","DISTURBANCE","CIVIC CENTER 1340 HARRISON","",""
"04/09/2018","17:11","218CR0008677","THEFT","CRIMINAL CONTEMPT","2084 HARRISON","ARREST(s) MADE",""
"04/09/2018","17:21","218CR0008678","WANTED PERSON","WANTED PERSON","************","",""
"04/09/2018","17:34","218CR0008679","MEDICAL - EMERGENCY","MEDICAL - EMERGENCY","630 SAMPSON","",""
"04/09/2018","17:44","218CR0008680","T/S","T/S","EXCEL // 12TH ST","",""
"04/09/2018","17:59","218CR0008681","SUICIDE ATTEMPT/THREAT","SUICIDE ATTEMPT/THREAT","************","",""
"04/09/2018","18:03","218CR0008682","THEFT","THEFT","305 E PARK ST","",""
"04/09/2018","18:10","218CR0008683","SUSPICIOUS ACTIVITY","SUSPICIOUS ACTIVITY","MONTANA ST AND GEORGE","",""
"04/09/2018","18:13","218CR0008684","WELFARE CHECK","WELFARE CHECK","649 1/2 S TRAVONIA","",""
"04/09/2018","18:19","218CR0008685","THEFT","THEFT","1370 HARRISON","",""
"04/09/2018","18:27","218CR0008686","ALL OTHER","PFMA - REASONABLE APPREHENSION","1325 W GRANITE","",""
"04/09/2018","18:28","218CR0008687","FOUND PROPERTY","FOUND PROPERTY","************","",""
"04/09/2018","18:33","218CR0008688","UNWANTED PERSON","UNWANTED PERSON","************","",""
"04/09/2018","18:46","218CR0008689","SUSPICIOUS ACTIVITY","SUSPICIOUS ACTIVITY","400 BLK SILVER BOW HOMES","",""
"04/09/2018","19:20","218CR0008690","OPEN BUILDING","OPEN BUILDING","519 W GALENA APT A","",""
"04/09/2018","19:32","218CR0008691","PARKING COMPLAINT","PARKING COMPLAINT","SILVER BOW HOMES","",""
"04/09/2018","19:43","218CR0008692","T/S","DRIVE WHILE SUSP. OR REVOKED","3873 WYNNE AVE","ARREST(s) MADE",""
"04/09/2018","20:13","218CR0008693","T/S","T/S","MAIN AND BENNETT","",""
"04/09/2018","20:41","218CR0008694","DISTURBANCE","DISTURBANCE","501 1/2 W DALY ST","",""
"04/09/2018","20:49","218CR0008695","ALL OTHER","ALL OTHER","3250 HECLA","",""
"04/09/2018","21:55","218CR0008697","ATL","ATL","ARIZONA ST AND OHIO ST","",""
"04/09/2018","21:55","218CR0008696","JUVENILE MISC","JUVENILE MISC","************","",""
"04/09/2018","22:35","218CR0008698","THEFT","THEFT","1301 HARRISON AVE","",""
"04/09/2018","23:07","218CR0008699","DISTURBANCE","BURGLARY, RESIDENCE","208 OHIO ST","ARREST(s) MADE",""
"04/09/2018","23:21","218CR0008700","T/S","T/S","OLYMPIA ST AND HARRISON AVE","",""
"04/10/2018","00:17","218CR0008701","DISTURBANCE","PFMA - REASONABLE APPREHENSION","657 S COLORADO","ARREST(s) MADE",""
"04/10/2018","00:29","218CR0008702","DOMESTIC ABUSE","PFMA - MINOR INJ/PHYSICAL CONT","2901 BARTLETT APT D","ARREST(s) MADE",""
"04/10/2018","01:16","218CR0008703","ALARM - MEDICAL","ALARM - MEDICAL","************","",""
"04/10/2018","06:46","218CR0008705","UNKNOWN PROBLEM","BURGLARY, RESIDENCE","815 EMPIRE","",""
"04/10/2018","06:58","218CR0008706","CIVIL PAPER SERVICE","CIVIL PAPER SERVICE","155 W QUARTZ","",""
"04/10/2018","07:06","218CR0008707","MEDICAL - EMERGENCY","MEDICAL - EMERGENCY","1515 OREGON #704","",""
"04/10/2018","07:22","218CR0008708","T/S","DRIVE WHILE SUSP. OR REVOKED","MONTANA AND MERCURY","",""
"04/10/2018","07:35","218CR0008709","ABANDONED VEHICLE","ABANDONED VEHICLE","FRONT AND OREGON","",""
"04/10/2018","07:38","218CR0008710","CIVIL PAPER SERVICE","CIVIL PAPER SERVICE","1021 1/2 E FRONT","",""
 

BSB police report ending April 9, 2018

"04/06/2018","00:04","218CR0008352","BUSINESS CHECK","BUSINESS CHECK","531 S MONTANA TOWN PUMP","",""
"04/06/2018","00:08","218CR0008353","DISTURBANCE","PFMA - REASONABLE APPREHENSION","1801 GAYLORD","ARREST(s) MADE",""
"04/06/2018","00:18","218CR0008354","SUSPICIOUS ACTIVITY","SUSPICIOUS ACTIVITY","531 S MONTANA TOWN PUMP","",""
"04/06/2018","00:34","218CR0008355","ASSIST OTHER AGENCY","ASSIST OTHER AGENCY","I15 MM 99 NB","",""
"04/06/2018","01:06","218CR0008356","THEFT","THEFT FROM MOTOR VEHICLE","2975 WASHOE YMCA","",""
"04/06/2018","01:10","218CR0008357","CITIZEN AID","CITIZEN AID","2537 STATE","",""
"04/06/2018","01:30","218CR0008358","CITIZEN AID","CITIZEN AID","1324 HARRISON AVE BUS DEPOT","",""
"04/06/2018","01:42","218CR0008359","DISTURBANCE","DISTURBANCE","531 S MONTANA/TOWN PUMP","",""
"04/06/2018","01:53","218CR0008360","MEDICAL - EMERGENCY","MEDICAL - EMERGENCY","2930 ELM ST BEEHIVE HOMES","",""
"04/06/2018","02:03","218CR0008361","BUSINESS CHECK","BUSINESS CHECK","531 S MONTANA TOWN PUMP","",""
"04/06/2018","02:28","218CR0008362","SUSPICIOUS ACTIVITY","SUSPICIOUS ACTIVITY","1300 BLK HARRISON","",""
"04/06/2018","02:39","218CR0008363","DISTURBANCE","DISTURBANCE","3700 HARRISON MAGIC DIAMOND","",""
"04/06/2018","02:50","218CR0008364","SUSPICIOUS ACTIVITY","SUSPICIOUS ACTIVITY","ROWE RD AND CLINTON","",""
"04/06/2018","03:24","218CR0008365","BUSINESS CHECK","BUSINESS CHECK","1915 DEWEY LUCKY LILS CASINO","",""
"04/06/2018","03:37","218CR0008366","SUSPICIOUS ACTIVITY","SUSPICIOUS ACTIVITY","2711 HARRISON TOWN PUMP","",""
"04/06/2018","03:55","218CR0008367","SUSPICIOUS ACTIVITY","DUI DRUGS OR ALCOHOL","901 E FRONT ST THRIFTWAY","ARREST(s) MADE",""
"04/06/2018","04:40","218CR0008368","JUVENILE RUNAWAY","UNGOVERNABLE JUVENILE","602 CALEDONIA","ARREST(s) MADE",""
"04/06/2018","06:07","218CR0008369","LED BUSINESS","LED BUSINESS","155 W GRANITE","",""
"04/06/2018","06:34","218CR0008370","SUSPICIOUS ACTIVITY","SUSPICIOUS ACTIVITY","DEWEY BLVD AND HARRISON AVE","",""
"04/06/2018","06:40","218CR0008371","SUSPICIOUS ACTIVITY","SUSPICIOUS ACTIVITY","CITY CENTER AT I15 SB","",""
"04/06/2018","07:00","218CR0008372","MEDICAL - EMERGENCY","MEDICAL - EMERGENCY","628 1/2 W GRANITE","",""
"04/06/2018","07:28","218CR0008373","SUICIDE ATTEMPT/THREAT","PROTECTIVE CUSTODY","834 ZARELDA ST","",""
"04/06/2018","07:30","218CR0008374","ACCIDENT - INJURY","RIGHT-OF-WAY VIOLATION","HARRISON ANDELIZABETH WARREN","",""
"04/06/2018","07:33","218CR0008375","ACCIDENT-MHP","ACCIDENT-MHP","I15 MM 122","",""
"04/06/2018","07:59","218CR0008376","ACCIDENT","RIGHT-OF-WAY VIOLATION","GALENA AND MAIN","",""
"04/06/2018","08:18","218CR0008377","MEDICAL - EMERGENCY","MEDICAL - EMERGENCY","117 TAPADERO TRAIL","",""
"04/06/2018","08:21","218CR0008378","THEFT","THEFT, ALL OTHERS","1008 DELAWARE ST","",""
"04/06/2018","08:23","218CR0008379","JUVENILE MISC","JUVENILE MISC","************","",""
"04/06/2018","08:52","218CR0008380","DETENTION BUSINESS","DETENTION BUSINESS","************","",""
"04/06/2018","09:32","218CR0008381","ACCIDENT - INJURY","ACCIDENT - INJURY","I15 MM 117 NB","",""
"04/06/2018","09:51","218CR0008382","DETENTION BUSINESS","DETENTION BUSINESS","************","",""
"04/06/2018","10:01","218CR0008383","ALL OTHER","ALL OTHER","2600 GRAND AVE","",""
"04/06/2018","10:27","218CR0008384","JUVENILE RUNAWAY","JUVENILE RUNAWAY","************","",""
"04/06/2018","11:13","218CR0008386","ACCIDENT","ACCIDENT","HOMES AND WESTERN","",""
"04/06/2018","11:21","218CR0008388","RESTRAINING ORDER VIOLATION","VIOLATION OF PROTECTION ORDER","815 EMPIRE ST","",""
"04/06/2018","11:35","218CR0008389","SNOW REMOVAL COMPLAINT","SNOW REMOVAL COMPLAINT","1524 A STREET","",""
"04/06/2018","11:45","218CR0008390","VEHICLE INSPECTION","VEHICLE INSPECTION","204 HUMBUG","",""
"04/06/2018","11:52","218CR0008391","CIVIL PAPER SERVICE","CIVIL PAPER SERVICE","455 N IDAHO ST","",""
"04/06/2018","11:57","218CR0008392","CIVIL PAPER SERVICE","CIVIL PAPER SERVICE","1115 W PARK","",""
"04/06/2018","11:57","218CR0008393","ASSIST OTHER AGENCY","ASSIST OTHER AGENCY","525 E PARK","",""
"04/06/2018","12:17","218CR0008394","CIVIL PAPER SERVICE","CIVIL PAPER SERVICE","1710 EVANS AVE","",""
"04/06/2018","12:18","218CR0008395","T/S","T/S","GRANITE AND IDAHO","",""
"04/06/2018","12:23","218CR0008397","MEDICAL - EMERGENCY","MEDICAL - EMERGENCY","2240 SKYWAY AVE","",""
"04/06/2018","12:31","218CR0008398","CIVIL PAPER SERVICE","CIVIL PAPER SERVICE","1484 SUNRISE LANE","",""
"04/06/2018","12:32","218CR0008399","VANDALISM/CRIMINAL MISCHIEF","VANDALISM/CRIMINAL MISCHIEF","PARKING GARAGE","",""
"04/06/2018","12:37","218CR0008400","ATL","ATL","2900 BLK BUSCH AVE","",""
"04/06/2018","12:39","218CR0008401","T/S","T/S","DISCOVERY AND HANSEN","",""
"04/06/2018","12:48","218CR0008402","CIVIL PAPER SERVICE","CIVIL PAPER SERVICE","724 S MAIN","",""
"04/06/2018","12:50","218CR0008403","ABANDONED VEHICLE","ABANDONED VEHICLE","1302 E SECOND SCOOP BAR","",""
"04/06/2018","12:57","218CR0008404","CIVIL PAPER SERVICE","CIVIL PAPER SERVICE","2835 FARRAGUT E104","",""
"04/06/2018","13:07","218CR0008405","UNWANTED PERSON","UNWANTED PERSON","************","",""
"04/06/2018","13:16","218CR0008406","WELFARE CHECK","WELFARE CHECK","556 N FRANKLIN","",""
"04/06/2018","13:17","218CR0008407","MEDICAL - EMERGENCY","MEDICAL - EMERGENCY","304 N MAIN","",""
"04/06/2018","13:31","218CR0008408","UNKNOWN PROBLEM","UNKNOWN PROBLEM","MAIN AND QUARTZ ST","",""
"04/06/2018","13:39","218CR0008409","WANTED PERSON","WANTED PERSON","************","",""
"04/06/2018","13:42","218CR0008410","THEFT","THEFT, SHOPLIFT","3901 HARRISON AVE","ARREST(s) MADE",""
"04/06/2018","13:52","218CR0008411","WELFARE CHECK","WELFARE CHECK","1004 S WYOMING ST","",""
"04/06/2018","13:57","218CR0008412","HARASSMENT","HARASSMENT","1524 A ST","",""
"04/06/2018","14:00","218CR0008413","T/S","SPEEDING","GRAND AND STUART","",""
"04/06/2018","14:12","218CR0008414","T/S","T/S","HOWARD ST AND GRAND AVE","",""
"04/06/2018","14:23","218CR0008415","T/S","SPEEDING","AMHERST ST AND HANCOCK ST","",""
"04/06/2018","14:25","218CR0008416","CITIZEN AID","CITIZEN AID","225 N ALASKA ST","",""
"04/06/2018","14:38","218CR0008417","FRAUD","FORGERY/COUNTERFEIT","2711 HARRISON AVE","",""
"04/06/2018","14:47","218CR0008418","THEFT","CRIMINAL MISCHIEF","525 S DAKOTA #C","",""
"04/06/2018","15:02","218CR0008419","HIT AND RUN","HIT AND RUN","2310 COBBAN","",""
"04/06/2018","15:05","218CR0008420","THEFT","THEFT","KNIGHTS OF COLUMBUS HALL","",""
"04/06/2018","15:12","218CR0008421","DISTURBANCE-NOISE","DISTURBANCE-NOISE","2860 SILVERBOW BLVD","",""
"04/06/2018","15:28","218CR0008422","T/S","USE OF ELECTR. DEVICE W/OP MV","HARRISON AND CIVIC CENTER","",""
"04/06/2018","16:04","218CR0008423","SUSPICIOUS ACTIVITY","SUSPICIOUS ACTIVITY","600 BLK DAKOTA ST","",""
"04/06/2018","16:28","218CR0008424","T/S","CRIMINAL CONTEMPT","HOWARD AND WALNUT","ARREST(s) MADE",""
"04/06/2018","16:43","218CR0008425","FIRE - STRUCTURE","FIRE - STRUCTURE","1436 SUNSET","",""
"04/06/2018","17:03","218CR0008426","SUSPICIOUS ACTIVITY","SUSPICIOUS ACTIVITY","678 S DAKOTA","",""
"04/06/2018","17:34","218CR0008427","WANTED PERSON","WANTED PERSON","************","",""
"04/06/2018","17:40","218CR0008428","WELFARE CHECK","WELFARE CHECK","HARRISON // WB OFF RAMP","",""
"04/06/2018","17:43","218CR0008429","STOLEN VEHICLE","MOTOR VEHICLE THEFT","145 CAMP CREEK ROAD","",""
"04/06/2018","18:01","218CR0008430","CIVIL STANDBY","CIVIL STANDBY","678 S DAKOTA","",""
"04/06/2018","19:23","218CR0008431","MEDICAL - EMERGENCY","MEDICAL - EMERGENCY","313 S DAKOTA","",""
"04/06/2018","20:07","218CR0008432","FRAUD","FRAUD","1659 SCHLEY","",""
"04/06/2018","20:09","218CR0008433","ABANDONED VEHICLE","ABANDONED VEHICLE","CENTENIAL AND EXCELSIOR","",""
"04/06/2018","20:53","218CR0008434","UNWANTED PERSON","UNWANTED PERSON","************","",""
"04/06/2018","20:58","218CR0008435","WELFARE CHECK","WELFARE CHECK","933 PLACER ST","",""
"04/06/2018","21:57","218CR0008436","MISSING PERSON","MISSING PERSON","************","",""
"04/06/2018","22:05","218CR0008437","MISSING PERSON","MISSING PERSON","************","",""
"04/06/2018","22:32","218CR0008438","T/S","T/S","1925 DEWEY BLVD BOB WARDS","",""
"04/06/2018","22:35","218CR0008439","SUSPICIOUS ACTIVITY","SUSPICIOUS ACTIVITY","2201 SILVERBOW BLVD MCGRATHS","",""
"04/06/2018","22:43","218CR0008440","BUSINESS CHECK","CRIMINAL CONTEMPT","1203 HOWARD SILVERBOW AC","ARREST(s) MADE",""
"04/06/2018","22:53","218CR0008441","SUICIDE ATTEMPT/THREAT","SUICIDE ATTEMPT/THREAT","************","",""
"04/06/2018","22:55","218CR0008442","T/S","SPEEDING","BUTTE PLAZA MALL PARKING LOT","",""
"04/06/2018","23:07","218CR0008443","SUSPICIOUS ACTIVITY","SUSPICIOUS ACTIVITY","2107 GRAND AVE","",""
"04/06/2018","23:19","218CR0008444","CIVIL PAPER SERVICE","CIVIL PAPER SERVICE","155 W QUARTZ BSB DETENTION CEN","",""
"04/06/2018","23:20","218CR0008445","T/S","T/S","1370 HARRISON/TOWN PUMP","",""
"04/06/2018","23:22","218CR0008446","T/S","T/S","HOLMES AND WYNNE","",""
"04/06/2018","23:26","218CR0008447","DISTURBANCE","DISTURBANCE","403 W GRANITE","",""
"04/06/2018","23:57","218CR0008448","T/S","T/S","1800 BLK HARRISON","",""
"04/07/2018","00:10","218CR0008449","RESTRAINING ORDER VIOLATION","RESTRAINING ORDER VIOLATION","************","",""
"04/07/2018","00:20","218CR0008450","UNWANTED PERSON","UNWANTED PERSON","************","",""
"04/07/2018","00:28","218CR0008451","T/S","T/S","1000 BLK S EXCELSIOR AVE","",""
"04/07/2018","00:32","218CR0008452","BUSINESS CHECK","BUSINESS CHECK","531 S MONTANA TOWN PUMP","",""
"04/07/2018","00:45","218CR0008453","T/S","T/S","GILMAN AND BUSCH","",""
"04/07/2018","00:45","218CR0008454","JUVENILE MISC","JUVENILE MISC","************","",""
"04/07/2018","01:07","218CR0008455","DISTURBANCE","DISTURBANCE","1045 W GALENA","",""
"04/07/2018","01:08","218CR0008456","UNWANTED PERSON","CRIMINAL CONTEMPT","1000 E FRONT FRONT ST LAUNDROM","ARREST(s) MADE",""
"04/07/2018","01:25","218CR0008457","T/S","T/S","GOLD AND IDAHO","",""
"04/07/2018","01:38","218CR0008458","DISTURBANCE-NOISE","DISTURBANCE-NOISE","2039 GAYLORD","",""
"04/07/2018","01:44","218CR0008459","FIRE- GAS ODOR","FIRE- GAS ODOR","EMMETT ST AND WOOLMAN","",""
"04/07/2018","01:59","218CR0008460","UNKNOWN PROBLEM","UNKNOWN PROBLEM","DEXTER ST AND HANCOCK ST","",""
"04/07/2018","02:07","218CR0008461","SUSPICIOUS ACTIVITY","SUSPICIOUS ACTIVITY","PARK AND MAIN","",""
"04/07/2018","02:27","218CR0008462","T/S","OPERATING WITHOUT CURRENT REGI","3000 BLK HARRISON","",""
"04/07/2018","05:17","218CR0008463","ALARM - BURGLARY","ALARM - BURGLARY","************","",""
"04/07/2018","08:09","218CR0008464","CIVIL PAPER SERVICE","CIVIL PAPER SERVICE","655 S MAIN","",""
"04/07/2018","08:21","218CR0008465","CIVIL PAPER SERVICE","CIVIL PAPER SERVICE","1214 FARRELL ST","",""
"04/07/2018","08:28","218CR0008466","CIVIL PAPER SERVICE","CIVIL PAPER SERVICE","724 S MAIN","",""
"04/07/2018","08:38","218CR0008467","CIVIL PAPER SERVICE","CIVIL PAPER SERVICE","700 W PARK","",""
"04/07/2018","08:42","218CR0008468","CIVIL PAPER SERVICE","CIVIL PAPER SERVICE","808 W SILVER","",""
"04/07/2018","08:44","218CR0008469","JUVENILE MISC","JUVENILE MISC","************","",""
"04/07/2018","08:57","218CR0008471","CIVIL PAPER SERVICE","CIVIL PAPER SERVICE","401 N MAIN","",""
"04/07/2018","08:58","218CR0008470","CIVIL PAPER SERVICE","CIVIL PAPER SERVICE","1115 W PARK","",""
"04/07/2018","08:59","218CR0008472","SUSPICIOUS ACTIVITY","SUSPICIOUS ACTIVITY","1000 BLK S EXCELSIOR","",""
"04/07/2018","09:07","218CR0008473","CIVIL PAPER SERVICE","CIVIL PAPER SERVICE","810 WAUKESHA","",""
"04/07/2018","09:08","218CR0008474","TRAFFIC HAZARD","TRAFFIC HAZARD","CIVIC CENTER PARKING LOT","",""
"04/07/2018","09:12","218CR0008475","CIVIL PAPER SERVICE","CIVIL PAPER SERVICE","455 N IDAHO ST","",""
"04/07/2018","09:14","218CR0008476","SUSPICIOUS ACTIVITY","SUSPICIOUS ACTIVITY","200 BLK CURTIS ST","",""
"04/07/2018","09:26","218CR0008477","JUVENILE RUNAWAY","UNGOVERNABLE JUVENILE","602 CALEDONIA","",""
"04/07/2018","09:33","218CR0008478","CIVIL PAPER SERVICE","CIVIL PAPER SERVICE","318 GRANITE MOUNTAIN ROAD","",""
"04/07/2018","09:47","218CR0008479","CIVIL PAPER SERVICE","CIVIL PAPER SERVICE","1913 S MONTANA","",""
"04/07/2018","09:57","218CR0008480","SUSPICIOUS ACTIVITY","SUSPICIOUS ACTIVITY","310 W DALY ST","",""
"04/07/2018","10:31","218CR0008481","DISTURBANCE","DISTURBANCE","3532 GAYLORD","",""
"04/07/2018","10:45","218CR0008482","VEHICLE INSPECTION","VEHICLE INSPECTION","1827 PHILLIPS","",""
"04/07/2018","11:10","218CR0008483","SUSPICIOUS ACTIVITY","SUSPICIOUS ACTIVITY","1511 SILVERBOW HOMES","",""
"04/07/2018","11:14","218CR0008484","MEDICAL - EMERGENCY","MEDICAL - EMERGENCY","24 E COPPER","",""
"04/07/2018","11:24","218CR0008485","ALARM - MEDICAL","ALARM - MEDICAL","************","",""
"04/07/2018","11:31","218CR0008486","MEDICAL - EMERGENCY","MEDICAL - EMERGENCY","3703 HARRISON","",""
"04/07/2018","11:38","218CR0008487","STOLEN VEHICLE","MOTOR VEHICLE THEFT","901 S WASHINGTON #2","",""
"04/07/2018","12:10","218CR0008488","JUVENILE MISC","JUVENILE MISC","************","",""
"04/07/2018","12:17","218CR0008489","FRAUD","FRAUD","1301 HARRISON AVE","",""
"04/07/2018","12:39","218CR0008490","T/S","T/S","DEWEY AND HILL","",""
"04/07/2018","13:06","218CR0008491","WELFARE CHECK","WELFARE CHECK","108 W GOLD ST","",""
"04/07/2018","13:23","218CR0008492","SUSPICIOUS ACTIVITY","SUSPICIOUS ACTIVITY","1003 MARYAND","",""
"04/07/2018","14:12","218CR0008493","WANTED PERSON","WANTED PERSON","************","",""
"04/07/2018","14:35","218CR0008494","ABANDONED VEHICLE","ABANDONED VEHICLE","617 W SILVER ST","",""
"04/07/2018","15:01","218CR0008495","ASSIST OTHER AGENCY","ASSIST OTHER AGENCY","HARRISON AVE AND CLEVLAND ST","",""
"04/07/2018","15:04","218CR0008496","ATL","ATL","1300 BLOCK HARRISON AVE","",""
"04/07/2018","15:16","218CR0008497","MEDICAL - EMERGENCY","MEDICAL - EMERGENCY","709 PLACER ST","",""
"04/07/2018","15:22","218CR0008498","THEFT","THEFT, SHOPLIFT","3901 HARRISON AVE","",""
"04/07/2018","15:41","218CR0008499","THEFT","THEFT","1301 HARRISON AVE","",""
"04/07/2018","15:54","218CR0008500","RESTRAINING ORDER VIOLATION","VIOLATION OF PROTECTION ORDER","2614 HANCOCK AVE","",""
"04/07/2018","16:20","218CR0008501","HARASSMENT","HARASSMENT","1825 GAYLORD","",""
"04/07/2018","16:35","218CR0008502","FIRE- GAS ODOR","FIRE- GAS ODOR","2321 LOCUST ST","",""
"04/07/2018","16:43","218CR0008503","MEDICAL - EMERGENCY","MEDICAL - EMERGENCY","155 W QUARTZ","",""
"04/07/2018","16:50","218CR0008504","THEFT","THEFT","2605 HARRISON AVE","",""
"04/07/2018","17:01","218CR0008505","DISTURBANCE","DISTURBANCE","854 S MAIN","",""
"04/07/2018","17:05","218CR0008506","DISTURBANCE-NOISE","DISTURBANCE-NOISE","2870 SILVER BOW BLVD","",""
"04/07/2018","17:17","218CR0008507","MEDICAL - EMERGENCY","MEDICAL - EMERGENCY","1324 HARRISON AVE","",""
"04/07/2018","17:40","218CR0008508","VANDALISM/CRIMINAL MISCHIEF","VANDALISM/CRIMINAL MISCHIEF","678 S DAKOTA","",""
"04/07/2018","17:41","218CR0008509","T/S","T/S","1700 BLK LONGFELLOW","",""
"04/07/2018","17:47","218CR0008510","ALARM - BURGLARY","ALARM - BURGLARY","************","",""
"04/07/2018","17:59","218CR0008511","WELFARE CHECK","WELFARE CHECK","161 LITTLE BASIN CREEK RD","",""
"04/07/2018","18:10","218CR0008512","ALL OTHER","ALL OTHER","855 EMPIRE","",""
"04/07/2018","18:18","218CR0008513","THEFT","THEFT","3901 HARRISON AVE","",""
"04/07/2018","19:37","218CR0008514","STOLEN VEHICLE","STOLEN VEHICLE","613 W GALENA","",""
"04/07/2018","19:46","218CR0008515","T/S","T/S","CONTINENTAL DR AND BAYARD ST","",""
"04/07/2018","19:56","218CR0008516","UNKNOWN PROBLEM","UNKNOWN PROBLEM","423 W MERCURY","",""
"04/07/2018","20:00","218CR0008517","JUVENILE MISC","JUVENILE MISC","************","",""
"04/07/2018","20:10","218CR0008518","MEDICAL - EMERGENCY","MEDICAL - EMERGENCY","201 HOBSON #1","",""
"04/07/2018","20:39","218CR0008519","SUSPICIOUS ACTIVITY","SUSPICIOUS ACTIVITY","3 BEARS DR","",""
"04/07/2018","21:13","218CR0008520","ATL","ATL","A ST AND HARRISON","",""
"04/07/2018","21:33","218CR0008521","SUSPICIOUS ACTIVITY","SUSPICIOUS ACTIVITY","1301 FOUR MILE RD","",""
"04/07/2018","21:39","218CR0008522","WELFARE CHECK","WELFARE CHECK","1370 SCHLEY","",""
"04/07/2018","21:46","218CR0008523","T/S","T/S","600 BLK N MAIN ST","",""
"04/07/2018","21:55","218CR0008524","UNKNOWN PROBLEM","UNKNOWN PROBLEM","1909 MONROE","",""
"04/07/2018","22:03","218CR0008525","STOLEN VEHICLE","STOLEN VEHICLE","1431 MOTORVIEW","",""
"04/07/2018","22:07","218CR0008526","ATL","ATL","DEWEY AND PAXSON","",""
"04/07/2018","22:08","218CR0008528","ATL","ATL","3300 BLK BURLINGTON","",""
"04/07/2018","22:09","218CR0008527","T/S","T/S","COBBAN AND MASSACHUSETTS","",""
"04/07/2018","22:16","218CR0008529","T/S","T/S @ BUSCH ST AND CLEVELAND ST","BUSCH ST AND CLEVELAND ST","",""
"04/07/2018","22:17","218CR0008530","MEDICAL - EMERGENCY","MEDICAL - EMERGENCY","I90 MM 233 WB","",""
"04/07/2018","22:51","218CR0008531","SUSPICIOUS ACTIVITY","SUSPICIOUS ACTIVITY","PARK AND WYOMING","",""
"04/07/2018","23:02","218CR0008532","T/S","T/S","220 N WYOMING MOTEL 6","",""
"04/07/2018","23:10","218CR0008533","SUSPICIOUS ACTIVITY","SUSPICIOUS ACTIVITY","220 N WYOMING","",""
"04/07/2018","23:27","218CR0008535","DISTURBANCE","DISTURBANCE","607 W GRANITE","",""
"04/07/2018","23:28","218CR0008534","T/S","T/S","300 BLK S MONTANA ST","",""
"04/07/2018","23:40","218CR0008536","BUSINESS CHECK","BUSINESS CHECK","2 E GALENA THE TIMES","",""
"04/08/2018","00:04","218CR0008537","ASSIST OTHER AGENCY","ASSIST OTHER AGENCY","I90 MM 234 WB","",""
"04/08/2018","00:16","218CR0008538","T/S","DRIVE WHILE SUSP. OR REVOKED","GEORGE ST AND MONTANA ST","",""
"04/08/2018","00:27","218CR0008539","T/S","T/S @ DEWEY AND LEXINGTON","DEWEY AND LEXINGTON","",""
"04/08/2018","00:46","218CR0008540","BUSINESS CHECK","BUSINESS CHECK","3700 HARRISON AVE","",""
"04/08/2018","00:46","218CR0008541","ALARM - BURGLARY","ALARM - BURGLARY","************","",""
"04/08/2018","00:57","218CR0008542","SUSPICIOUS ACTIVITY","SUSPICIOUS ACTIVITY","1000 BLK S EXCELSIOR","",""
"04/08/2018","01:09","218CR0008543","DISTURBANCE","ASSAULT, SIMPLE","2 E GALENA THE TIMES","ARREST(s) MADE",""
"04/08/2018","01:41","218CR0008544","DISTURBANCE","DISTURBANCE","GALENA AND MAIN","",""
"04/08/2018","01:46","218CR0008545","T/S","T/S","UTAH AND THIRD","",""
"04/08/2018","01:57","218CR0008546","T/S","T/S @ GOLD ST AND MAIN ST","GOLD ST AND MAIN ST","",""
"04/08/2018","02:03","218CR0008547","DISTURBANCE","DISTURBANCE","PARK AND MAIN","",""
"04/08/2018","02:06","218CR0008548","DISTURBANCE","DISTURBANCE","1302 E SECOND SCOOP BAR","",""
"04/08/2018","03:04","218CR0008549","ASSIST OTHER AGENCY","ASSIST OTHER AGENCY","I90 EB MM 209","",""
"04/08/2018","03:44","218CR0008550","T/S","DUI UNDER 21 BAC .02 GREATER","UTAH AND FIRST","ARREST(s) MADE",""
"04/08/2018","05:35","218CR0008551","THEFT","THEFT","217 HOBSON","",""
"04/08/2018","08:15","218CR0008552","FOUND PROPERTY","POSSESSION OF DANGEROUS DRUGS","2610 HARRISON AVE","",""
"04/08/2018","08:45","218CR0008553","MEDICAL - EMERGENCY","MEDICAL - EMERGENCY","2920 ELM ST","",""
"04/08/2018","09:24","218CR0008554","CIVIL PAPER SERVICE","CIVIL PAPER SERVICE","810 WAUKESHA ST","",""
"04/08/2018","09:27","218CR0008555","ALARM - MEDICAL","ALARM - MEDICAL","************","",""
"04/08/2018","09:33","218CR0008556","CIVIL PAPER SERVICE","CIVIL PAPER SERVICE","1214 FARRELL ST","",""
"04/08/2018","09:41","218CR0008557","SUSPICIOUS ACTIVITY","SUSPICIOUS ACTIVITY","FARRELL AND HAYES","",""
"04/08/2018","10:26","218CR0008558","T/S","T/S @ FARRAGUT AVE AND AMHERST ST","FARRAGUT AVE AND AMHERST ST","",""
"04/08/2018","10:32","218CR0008559","THEFT","THEFT, ALL OTHERS","2900 HARRISON AVE","",""
"04/08/2018","10:34","218CR0008560","T/S","T/S @ 1555 HARRISON AVE","1555 HARRISON AVE","",""
"04/08/2018","10:55","218CR0008561","T/S","T/S","HOWARD ST AND GRAND AVE","",""
"04/08/2018","11:18","218CR0008562","T/S","T/S @ 712 E FRONT","712 E FRONT","",""
"04/08/2018","11:27","218CR0008563","DISTURBANCE","PFMA - REASONABLE APPREHENSION","FRONT AND OREGON","",""
"04/08/2018","11:39","218CR0008564","BURGLARY","BURGLARY","401 W DALY ST","",""
"04/08/2018","11:59","218CR0008565","ABANDONED VEHICLE","ABANDONED VEHICLE","DALY AND 4TH ST","",""
"04/08/2018","12:00","218CR0008566","T/S","T/S","","",""
"04/08/2018","12:03","218CR0008567","T/S","T/S","COBBAN ST AND FARRAGUT AVE","",""
"04/08/2018","12:49","218CR0008568","THEFT","THEFT","225 N ALASKA","",""
"04/08/2018","12:52","218CR0008569","JUVENILE MISC","JUVENILE MISC","************","",""
"04/08/2018","13:06","218CR0008570","THEFT","THEFT, SHOPLIFT","1839 HARRISON AVE","",""
"04/08/2018","13:19","218CR0008571","WANTED PERSON","WANTED PERSON","************","",""
"04/08/2018","13:26","218CR0008572","DISTURBANCE","DISTURBANCE","525 E MERCURY","",""
"04/08/2018","13:40","218CR0008573","WANTED PERSON","WANTED PERSON","************","",""
"04/08/2018","13:47","218CR0008574","CIVIL PAPER SERVICE","CIVIL PAPER SERVICE","726 S WASHINGTON","",""
"04/08/2018","13:52","218CR0008575","CITIZEN AID","CITIZEN AID","3040 BUSCH AVE","",""
"04/08/2018","13:52","218CR0008576","CITIZEN AID","CITIZEN AID","525 E MERCURY","",""
"04/08/2018","13:55","218CR0008577","THEFT","THEFT, SHOPLIFT","3901 HARRISON AVE","ARREST(s) MADE",""
"04/08/2018","14:07","218CR0008578","JUVENILE MISC","CRIMINAL CONTEMPT","1325 W GRANITE","ARREST(s) MADE",""
"04/08/2018","14:24","218CR0008579","SUICIDE ATTEMPT/THREAT","SUICIDE ATTEMPT/THREAT","************","",""
"04/08/2018","14:36","218CR0008580","LED BUSINESS","LED BUSINESS","225 N ALASKA","",""
"04/08/2018","15:04","218CR0008581","THEFT","THEFT","3033 BUSCH #56","",""
"04/08/2018","15:31","218CR0008582","DISTURBANCE","PFMA - MINOR INJ/PHYSICAL CONT","1021 1/2 E FRONT","",""
"04/08/2018","15:39","218CR0008583","VANDALISM/CRIMINAL MISCHIEF","VANDALISM/CRIMINAL MISCHIEF","1337 SUNRISE LANE","",""
"04/08/2018","15:46","218CR0008584","ALARM - BURGLARY","ALARM - BURGLARY","************","",""
"04/08/2018","16:05","218CR0008585","T/S","OPERATING WITHOUT CURRENT REGI","I15 MM 123 WB","",""
"04/08/2018","16:30","218CR0008586","ALL OTHER","ALL OTHER","533 N FRANKLIN","",""
"04/08/2018","16:47","218CR0008587","T/S","T/S @ GRAND AVE AND FLORENCE AVE","GRAND AVE AND FLORENCE AVE","",""
"04/08/2018","16:54","218CR0008588","MEDICAL - EMERGENCY","MEDICAL - EMERGENCY","16 W GALENA","",""
"04/08/2018","17:35","218CR0008589","WELFARE CHECK","WELFARE CHECK","1021 S ARIZONA","",""
"04/08/2018","17:49","218CR0008590","DISTURBANCE-NOISE","DISTURBANCE-NOISE","2870 SILVER BOW BLVD","",""
"04/08/2018","18:30","218CR0008591","FRAUD","FRAUD","818 S ARIZONA","",""
"04/08/2018","18:31","218CR0008592","JUVENILE MISC","JUVENILE MISC","************","",""
"04/08/2018","18:45","218CR0008593","WELFARE CHECK","WELFARE CHECK","MARCIA AND FLORENCE","",""
"04/08/2018","18:51","218CR0008594","ANIMAL COMPLAINT","ANIMAL COMPLAINT","388 STANDBY CREEK ROAD","",""
"04/08/2018","19:47","218CR0008595","UNKNOWN PROBLEM","UNKNOWN PROBLEM","2031 GAYLORD","",""
"04/08/2018","20:41","218CR0008596","DISTURBANCE","DISTURBANCE","14 W FREEMONT RD","",""
"04/08/2018","20:54","218CR0008597","SUSPICIOUS ACTIVITY","SUSPICIOUS ACTIVITY","615 W SILVER ST","",""
"04/08/2018","21:17","218CR0008598","CIVIL PAPER SERVICE","CIVIL PAPER SERVICE","155 W QUARTZ","",""
"04/08/2018","21:19","218CR0008599","WELFARE CHECK","WELFARE CHECK","650 YALE AVE","",""
"04/08/2018","21:25","218CR0008600","T/S","T/S @ MONTANA ST AND ALUMINUM ST","MONTANA ST AND ALUMINUM ST","",""
"04/08/2018","21:38","218CR0008601","FRAUD","FORGERY/COUNTERFEIT","1500 FAIRMONT ROAD","",""
"04/08/2018","21:40","218CR0008602","DISTURBANCE","DISTURBANCE","1911 MASSACHUSETTS AVE","",""
"04/08/2018","21:53","218CR0008603","WELFARE CHECK","WELFARE CHECK","1911 MASSACHUSETTS AVE","",""
"04/08/2018","22:13","218CR0008604","DISTURBANCE","PFMA - MINOR INJ/PHYSICAL CONT","1021 S ARIZONA","",""
"04/08/2018","22:33","218CR0008605","SUICIDE ATTEMPT/THREAT","SUICIDE ATTEMPT/THREAT","************","",""
"04/08/2018","22:42","218CR0008606","BUSINESS CHECK","BUSINESS CHECK","1370 HARRISON TOWN PUMP","",""
"04/08/2018","22:49","218CR0008607","DISTURBANCE","DISTURBANCE","206 W SECOND","",""
"04/08/2018","23:02","218CR0008608","DISTURBANCE","DISTURBANCE","817 W SILVER ST","",""
"04/08/2018","23:06","218CR0008609","SUSPICIOUS ACTIVITY","SUSPICIOUS ACTIVITY","PLATINUM AND MONTANA","",""
"04/08/2018","23:13","218CR0008610","MEDICAL - EMERGENCY","MEDICAL - EMERGENCY","5100 S WARREN #28","",""
"04/08/2018","23:13","218CR0008611","UNWANTED PERSON","UNWANTED PERSON","************","",""
"04/08/2018","23:23","218CR0008612","MEDICAL - EMERGENCY","MEDICAL - EMERGENCY","2941 SILVERBOW BLVD","",""
"04/08/2018","23:33","218CR0008613","SUSPICIOUS ACTIVITY","SUSPICIOUS ACTIVITY","EXCELSIOR AND LEWISOHN","",""
"04/08/2018","23:51","218CR0008614","SUSPICIOUS ACTIVITY","SUSPICIOUS ACTIVITY","2330 HARVARD","",""
"04/09/2018","00:20","218CR0008615","BUSINESS CHECK","BUSINESS CHECK","1370 HARRISON TOWN PUMP","",""
"04/09/2018","00:24","218CR0008616","WANTED PERSON","WANTED PERSON","************","",""
"04/09/2018","00:29","218CR0008617","T/S","T/S @ SILVER AND MONTANA","SILVER AND MONTANA","",""
"04/09/2018","00:32","218CR0008618","SUSPICIOUS ACTIVITY","SUSPICIOUS ACTIVITY","1800 BLK WILSON","",""
"04/09/2018","01:16","218CR0008619","SUSPICIOUS ACTIVITY","SUSPICIOUS ACTIVITY","1021 S ARIZONA","",""
"04/09/2018","01:28","218CR0008620","CITIZEN AID","CITIZEN AID","2612 SILVERBOW BLVD","",""
"04/09/2018","01:37","218CR0008621","MEDICAL - EMERGENCY","MEDICAL - EMERGENCY","1936 FLORIDA","",""
"04/09/2018","02:50","218CR0008622","SUSPICIOUS ACTIVITY","CRIMINAL CONTEMPT","400 BLK OHIO","ARREST(s) MADE",""
"04/09/2018","03:19","218CR0008623","BUSINESS CHECK","BUSINESS CHECK","531 S MONTANA","",""
"04/09/2018","03:50","218CR0008624","SUSPICIOUS ACTIVITY","SUSPICIOUS ACTIVITY","2500 BLK BAYARD","",""
"04/09/2018","04:01","218CR0008625","MEDICAL - EMERGENCY","MEDICAL - EMERGENCY","FLYING J 122000 BROWNS GLCH RD","",""
"04/09/2018","05:29","218CR0008626","STOLEN VEHICLE","STOLEN VEHICLE","677 S ALABAMA","",""
"04/09/2018","07:20","218CR0008627","CIVIL PAPER SERVICE","CIVIL PAPER SERVICE","318 GRANITE MOUNTAIN ROAD","",""
"04/09/2018","07:26","218CR0008628","T/S","T/S @ PLATINUM AND EXCEL","PLATINUM AND EXCEL","",""
"04/09/2018","07:36","218CR0008629","T/S","T/S @ 1200 BK HARRISON","1200 BK HARRISON","",""
 

Subcategories

Tuesday the 24th. Affiliate Marketing.
Copyright 2012

©